Regional Weather Roundup
Issued by NWS

Home | Current Version | Previous Version | Text Only | Print | Product List | Glossary On
Versions: 1 2 3 4 5 6 7 8 9 10 11 12 13 14 15 16 17 18 19 20 21 22 23 24 25 26 27 28 29 30 31 32 33 34 35 36 37 38 39 40 41 42 43 44 45 46 47 48 49 50
000
ASUS42 KFFC 280310
RWRGA
WEATHER ROUNDUP FOR GEORGIA
NATIONAL WEATHER SERVICE PEACHTREE CITY GA
1100 PM EDT THU APR 27 2017

NOTE: "FAIR" INDICATES FEW OR NO CLOUDS BELOW 12,000 FEET WITH NO
SIGNIFICANT WEATHER AND/OR OBSTRUCTIONS TO VISIBILITY.

* = USE WITH CAUTION. THE STATIONS MARKED WITH AN ASTERISK MAY NOT
REPORT WEATHER SUCH AS PRECIPITATION, FOG, OR THUNDER AND ARE NOT
QUALITY CONTROLLED BY NWS.

THE REMARK "TC" DENOTES TEMPERATURE READING IN DEGREES CELSIUS.

GAZ001>058-280400-
NORTH GEORGIA

CITY           SKY/WX    TMP DP  RH WIND       PRES   REMARKS
ATLANTA        PTCLDY    71  70  96 S8        29.90R
ATHENS         CLEAR     66  65  96 S3        29.90R
CHAMBLEE       PTCLDY    70  67  90 S5        29.90R
PEACHTREE CITY CLEAR     69  69 100 SE3       29.91R
ROME           CLEAR     63  59  87 CALM      29.87R
WEST ATLANTA   PTCLDY    65  63  93 CALM      29.90R
GAINESVILLE    PTCLDY    66  65  96 SE3       29.93R
CARTERSVILLE   CLEAR     60  59  96 CALM      29.88R


CITY           SKY/WX    TMP DP  RH WIND       PRES   REMARKS
DALTON*        CLEAR     61  61 100 CALM      29.88S
MARIETTA       CLEAR     64  61  91 CALM      29.89R
KENNESAW*      CLEAR     64  59  82 CALM      29.88R
CANTON*        CLEAR     63  59  88 CALM      29.91R
$$

GAZ059>098-102>109-280400-
CENTRAL GEORGIA

CITY           SKY/WX    TMP DP  RH WIND       PRES   REMARKS
AUGUSTA-BUSH   CLOUDY    73  69  87 SE3       29.89R
AUGUSTA-DANIEL CLOUDY    75  65  70 CALM      29.92R
COLUMBUS       LGT RAIN  72  69  90 SE3       29.90R
MACON          LGT RAIN  69  68  96 SE3       29.91R
ROBINS AFB     CLOUDY    70  68  94 CALM      29.91R


CITY           SKY/WX    TMP DP  RH WIND       PRES   REMARKS
LAGRANGE*      PTCLDY    66  66 100 CALM      29.90R
SYLVANIA*      CLEAR    N/A N/A N/A S3        29.93R
MILLEDGEVILLE* LGT RAIN  70  70 100 CALM      29.91R
$$

GAZ099>101-110>166-280400-
SOUTH GEORGIA

CITY           SKY/WX    TMP DP  RH WIND       PRES   REMARKS
SAVANNAH       MOCLDY    75  67  76 S9        29.95R
VALDOSTA       PTCLDY    73  69  87 CALM      29.94R
ALMA           CLEAR     75  67  76 S7        29.93R
ST SIMONS      CLOUDY    76  72  87 S8        29.96R
FT STEWART     CLEAR     75  66  75 S5        29.93R
ALBANY         LGT RAIN  76  71  85 S9        29.93R
HUNTER AFB     CLEAR     76  75  98 S7        29.93R
MOODY AFB      PTCLDY    75  69  79 S7        29.93R
BRUNSWICK      CLEAR     77  73  88 CALM      29.96R


CITY           SKY/WX    TMP DP  RH WIND       PRES   REMARKS
BAINBRIDGE*    PTCLDY    77  70  78 S6        29.93R
MOULTRIE*      CLEAR     73  70  88 S5        29.95R
VIDALIA*       CLEAR     79  64  61 SW10      29.92S
WAYCROSS*      PTCLDY    77  70  77 SW5       29.94R
DOUGLAS*       CLOUDY    75  66  73 SW7       29.95R
$$




USA.gov is the U.S. government's official web portal to all federal, state and local government web resources and services.